STARLINK-5146 (54073 NORAD) Tracking and Keplerian Element Data

This shows tracking and keplerian element data for the satellite.

Feedback or suggestion? Click here.




ElementValue
Catalog54073
NameSTARLINK-5146
Epoch Orbit550
Epoch Day325.33334491
Epoch Year2022
RAAN351.0506
Inclination53.217
Eccentricity0.0001255
Argument of Perigee57.0047
Mean Anonmoly208.4306
Mean Motion15.65035261
Decay Rate-0.00728089
L11 54073U 22136Y 22325.33334491 -.00728089 00000+0 -79330-2 0 9996
L22 54073 53.2170 351.0506 0001255 57.0047 208.4306 15.65035261 5502



Live tracking and technical data element details for STARLINK-5146 (NORAD 54073). STARLINK-5146 can be tracked NOW for your location showing map with azimuth and elevation plus other details from your city location.







IsCatalogInMostPopularTable: catalog: 54073, numindb: 1
Update: records affected: 1



GetName: 54073 STARLINK-5146

Hit Count: updated at: Fri, 09 Dec 2022 20:19:56 GMT